Meteo Giornale » Osservazioni meteo Francia » Parigi-Orly

ore: 19:30 - Osservazioni Meteo Parigi-Orly
Lat. 48° 44' N Lon. 2° 24' E Alt. 89 metri s.l.m.

molto_nuvoloso Europe/Paris

21 °C

Molto Nuvoloso

Temp. 24 Ore

17 °C

23 °C

Ovest

7.4 Km/h

Dew point 13 °C

Umidità 60 %

Visibilità  10 Km

Il sole sorge alle ore 06:46

Il sole tramonta alle ore 21:01

Data e Ora Cielo e Fenomeni T °C DP °C Um. % Pres. hPa Vis. km Vento km/h
Oggi h: 19:30 molto_nuvoloso Molto Nuvoloso 21 13 60 1015 10 O 7.4
Oggi h: 19:18 molto_nuvoloso Molto Nuvoloso 21 14 64 1015 10 N 5.5
Oggi h: 19:00 molto_nuvoloso Molto Nuvoloso 21 14 64 1015 10 N 5.5
Oggi h: 18:30 molto_nuvoloso Molto Nuvoloso 21 14 64 1015 10 O 16.7
Oggi h: 18:00 nuvoloso_piovaschi Debole Rovescio di Pioggia 21 13 60 1014 10 O 14.8
Oggi h: 17:30 nuvoloso Nuvoloso 22 14 60 1014 10 O 16.7
Oggi h: 17:00 nuvoloso Nuvoloso 23 14 56 1014 10 O/SO 25.9
Oggi h: 16:30 molto_nuvoloso Molto Nuvoloso 22 17 73 1014 10 S/SO 16.7
Oggi h: 16:00 molto_nuvoloso Molto Nuvoloso 21 17 77 1014 10 S/SO 18.5
Oggi h: 15:30 molto_nuvoloso Molto Nuvoloso 20 17 82 1015 10 S/SO 16.7
Oggi h: 15:00 molto_nuvoloso Molto Nuvoloso 19 18 93 1015 10 S/SO 22.2
Oggi h: 14:30 molto_nuvoloso Molto Nuvoloso 19 17 88 1015 10 S/SO 13
Oggi h: 14:00 molto_nuvoloso Molto Nuvoloso 18 17 93 1015 10 S/SO 13
Oggi h: 13:30 nuvoloso_piovaschi Debole Rovescio di Pioggia 18 16 88 1015 5 S/SO 14.8
Oggi h: 13:00 molto_nuvoloso Molto Nuvoloso 18 16 88 1015 10 S/SO 14.8
Oggi h: 12:30 nuvoloso_piovaschi Debole Rovescio di Pioggia Foschia 17 16 93 1015 4 SO 13
Oggi h: 12:00 coperto Coperto 17 16 93 1015 10 S/SO 18.5
Oggi h: 11:30 molto_nuvoloso Molto Nuvoloso 17 16 93 1015 10 S 20.3
Oggi h: 11:00 coperto_pioggia Pioggia Debole 17 16 93 1015 8 S/SO 14.8
Oggi h: 10:30 coperto_pioggia Pioggia Debole 18 16 88 1015 10 S/SO 14.8
Oggi h: 10:00 coperto_pioggia Pioggia Debole 18 17 93 1015 10 S/SO 13
Oggi h: 09:30 coperto_pioggia Pioggia Debole 18 17 93 1015 10 S/SO 16.7
Oggi h: 09:00 coperto_pioggia Pioggia Debole 18 16 88 1015 10 S/SO 14.8
Oggi h: 08:30 coperto_pioggia Pioggia Debole 18 17 93 1015 10 S/SO 11.1
Oggi h: 08:00 coperto_pioggia Pioggia Debole 19 18 93 1015 10 S/SO 9.3
Oggi h: 07:30 coperto_pioggia Pioggia Debole 19 18 93 1015 6 S/SO 11.1
Oggi h: 07:00 coperto_pioggia Pioggia Debole 19 18 93 1015 9 N 5.5
Oggi h: 06:30 coperto_pioggia Pioggia Debole 19 17 88 1015 9 S/SO 11.1
Oggi h: 06:00 coperto_pioggia Pioggia Debole 19 17 88 1015 10 S/SO 9.3
Oggi h: 05:30 coperto_pioggia Pioggia Debole 19 18 93 1015 10 S/SO 14.8
Oggi h: 05:00 molto_nuvoloso Molto Nuvoloso 19 18 93 1015 10 S/SO 11.1
Oggi h: 04:30 molto_nuvoloso Molto Nuvoloso 19 18 93 1015 10 S/SO 7.4
Oggi h: 04:00 molto_nuvoloso Molto Nuvoloso 19 18 93 1015 10 SO 7.4
Oggi h: 03:30 molto_nuvoloso Molto Nuvoloso 19 18 93 1015 10 SO 11.1
Oggi h: 03:00 molto_nuvoloso Molto Nuvoloso 19 18 93 1015 10 O/SO 16.7
Oggi h: 02:30 molto_nuvoloso Molto Nuvoloso 19 18 93 1015 10 SO 14.8
Oggi h: 02:00 molto_nuvoloso Molto Nuvoloso 20 18 88 1015 10 SO 16.7
Oggi h: 01:30 molto_nuvoloso Molto Nuvoloso 20 18 88 1015 10 SO 16.7
Oggi h: 01:00 molto_nuvoloso Molto Nuvoloso 20 18 88 1015 10 S/SO 14.8
Oggi h: 00:30 molto_nuvoloso Molto Nuvoloso 20 18 88 1016 10 S/SO 13
Oggi h: 00:00 molto_nuvoloso Molto Nuvoloso 20 18 88 1016 10 S/SO 13
Ieri h: 23:30 molto_nuvoloso Molto Nuvoloso 20 19 93 1016 10 S/SO 14.8
Ieri h: 23:00 molto_nuvoloso Molto Nuvoloso 20 19 93 1016 10 SO 13
Ieri h: 22:30 molto_nuvoloso Molto Nuvoloso 20 18 88 1016 10 SO 16.7
Ieri h: 22:00 molto_nuvoloso Molto Nuvoloso 20 19 93 1016 10 SO 13
Ieri h: 21:30 molto_nuvoloso Molto Nuvoloso 20 19 93 1016 10 S/SO 14.8
Ieri h: 21:00 molto_nuvoloso Molto Nuvoloso 21 19 88 1016 10 S/SO 9.3
Ieri h: 20:41 molto_nuvoloso Molto Nuvoloso 21 19 88 1016 10 O/SO 7.4